MyTimes logo

TIMES

Webb Imagery

9/02/2008
Channel Challenge
550m Swim / 2.0km Run - Local Residents

(Click on competitor name to view personalised results)

Name
Race #
Category
Time
(h:mm:ss)
Avg Speed
km/hr
OAll
Place
Cat
Place
ROWE Mark#209Local Senior Male0:12:43 12 11
FLIESNER ROB#653Local Male 40-490:13:16 11.5 21
PLANT LUKE#603Local Junior Male0:13:17 11.5 31
DALLINGER Andrew#170Local Senior Male0:13:36 11.2 42
EVANS BRAD#65Local Senior Male0:13:40 11.2 53
KERR Lewis#732Local Junior Male0:13:44 11.1 62
MCGRATH STEPHANIE#396Local Senior Female0:13:48 11.1 71
YUSKO BILL#676Local Male 50+0:14:00 10.9 81
OLDEN Joshua#111Local Senior Male0:14:37 10.5 94
CORBETT JIM#75Local Senior Male0:14:50 10.3 105
JUDD Alex#713Local Junior Male0:14:51 10.3 113
HARRISON HAMISH#618Local Junior Male0:15:05 10.1 124
VIRTUE Geoff#105Local Male 40-490:15:05 10.1 132
HUTCHINSON WARWICK#632Local Male 40-490:15:08 10.1 143
MATHEWS JACK#91Local Senior Male0:15:14 10 156
BUTT CHLOE#332Local Junior Female0:15:25 9.9 161
CHISHOLM Andy#175Local Senior Male0:15:28 9.9 177
DALLINGER CHRIS#72Local Senior Male0:15:29 9.9 188
CARTER Lachlan#109Local Senior Male0:15:30 9.9 199
CROWE Suzie#466Local Junior Female0:15:38 9.8 202
WALDER MITCH#617Local Junior Male0:15:39 9.8 215
HOMER IVAN#646Local Male 40-490:15:42 9.7 224
HEWETT Noel#693Local Male 40-490:15:43 9.7 235
DAVIE KRYSTAL#331Local Junior Female0:15:44 9.7 243
WATSON RUSSELL#229Local Senior Male0:15:46 9.7 2510
DOCHERTY Josh#759Local Junior Male0:16:09 9.5 266
PETERSON MARNIE#329Local Junior Female0:16:15 9.4 274
MAIER David#726Local Male 40-490:16:15 9.4 286
BOND MARCUS#70Local Senior Male0:16:16 9.4 2911
BOYD Jesse#183Local Senior Male0:16:19 9.4 3012
MARTIN Brian#760Local Male 40-490:16:20 9.4 317
TURNER Peter#740Local Male 40-490:16:21 9.4 328
BEAUMONT Tyron#703Local Junior Male0:16:23 9.3 337
EISEN Nat#162Local Senior Male0:16:32 9.3 3413
JUDD Gary#714Local Male 50+0:16:32 9.3 352
TESTER Ben#737Local Junior Male0:16:33 9.2 368
CROWE Damien#744Local Male 50+0:16:34 9.2 373
ALDERSON ALLAN#757Local Male 50+0:16:36 9.2 384
DAVIE JASMINE#330Local Junior Female0:16:41 9.2 395
DAVIE ANGELA#312Local Female 40-490:16:45 9.1 401
THOMPSON DAVID#652Local Male 40-490:16:46 9.1 419
TAYLOR Matilda#438Local Senior Female0:16:47 9.1 422
MANTEIT Michael#721Local Junior Male0:16:54 9.1 439
MARSHALL Luke#123Local Senior Male0:16:56 9 4414
HADLEY Alister#773Local Junior Male0:16:56 9 4510
SUNDERLAND Peter#698Local Male 50+0:17:07 8.9 465
VERNON Zak#685Local Junior Male0:17:08 8.9 4711
ROBINSON JAMIE#612Local Junior Male0:17:09 8.9 4812
DAFF Geoff#687Local Male 50+0:17:13 8.9 496
CARGILL Sam#213Local Senior Male0:17:27 8.8 5015
O'DONOHUE Jacob#702Local Junior Male0:17:35 8.7 5113
SMITH James#756Local Junior Male0:17:36 8.7 5214
EARL Lachlan#214Local Senior Male0:17:44 8.6 5316
PLANT Cassie#429Local Junior Female0:17:45 8.6 546
GODING Lindsay#141Local Senior Male0:17:47 8.6 5517
CAMPBELL Courtney#244Local Senior Male0:17:53 8.6 5618
BOURKE Lucy#422Local Senior Female0:17:58 8.5 573
LAW Struan#729Local Junior Male0:18:03 8.5 5815
REDDIE LUKE#16Local Senior Male0:18:04 8.5 5919
MANTEIT Mark#720Local Male 40-490:18:04 8.5 6010
GRUMMISCH Mark#188Local Senior Female0:18:07 8.4 614
TAMBURO ALYSHA#411Local Senior Female0:18:09 8.4 625
FOSTIN Bianca#486Local Senior Female0:18:13 8.4 636
MATHEWS ROBERT#682Local Male 50+0:18:13 8.4 647
MANNING John#161Local Senior Male0:18:15 8.4 6520
ADAMS Simon#708Local Male 40-490:18:20 8.3 6611
MANNING Simon#692Local Male 40-490:18:26 8.3 6712
STRACHAN Donovan#228Local Senior Male0:18:27 8.3 6821
ROGERS ANIKA#336Local Junior Female0:18:34 8.2 697
COX Bill#694Local Male 40-490:18:34 8.2 7013
FLEISNER PAUL#670Local Male 50+0:18:36 8.2 718
SUTHERLAND Micahael#249Local Senior Male0:18:37 8.2 7222
ANDERS Tully#704Local Junior Male0:18:38 8.2 7316
MOSELEY Tessa#470Local Senior Female0:18:49 8.1 747
JONES PENNY#367Local Senior Female0:18:49 8.1 758
SCOTT Beth#490Local Junior Female0:18:56 8.1 768
LINDSAY Mark#227Local Senior Male0:18:57 8.1 7723
FERGIE Bruce#747Local Male 50+0:18:57 8.1 789
CHAPMAN WAYNE#94Local Senior Male0:19:06 8 7924
CAMERON Jane#437Local Female 40-490:19:11 8 802
MC COY Tony#731Local Male 40-490:19:13 8 8114
HOPKINS Barry#690Local Male 50+0:19:14 8 8210
O'DONOHUE Mark#701Local Male 40-490:19:18 7.9 8315
HAIN Jacqui#428Local Senior Female0:19:25 7.9 849
CARTER Dean#691Local Male 50+0:19:36 7.8 8511
BEAUMONT Ashley#215Local Senior Male0:19:49 7.7 8625
FERGIE Fleur#468Local Junior Female0:19:51 7.7 879
ADAMS MURRAY#675Local Male 50+0:19:52 7.7 8812
MORRISON Kerry#498Local Female 50+0:19:56 7.7 891
DALLIINGER Brian#697Local Male 50+0:20:02 7.6 9013
GOLDSBURY Amber#442Local Senior Female0:20:03 7.6 9110
FITZGERALD RICHARD#659Local Male 50+0:20:04 7.6 9214
WALDER CHARLES#648Local Male 40-490:20:07 7.6 9316
DIXON Michael#770Local Male 40-490:20:16 7.5 9417
LOUGHRAN RHYS#29Local Senior Male0:20:24 7.5 9526
MONHHOUSE Sandy#418Local Senior Female0:20:27 7.5 9611
CHASTON Pete#695Local Male 50+0:20:30 7.5 9715
SZE ITCI Justin#484Local Senior Female0:20:34 7.4 9812
CAIN GREG#684Local Male 50+0:20:39 7.4 9916
EVANS KYM#392Local Senior Female0:21:04 7.3 10013
REDDIE MICHAEL#664Local Male 50+0:21:06 7.3 10117
HIBBLE Jenny#476Local Female 40-490:21:13 7.2 1023
KNIGGE Peter#678Local Male 50+0:21:18 7.2 10318
ADKINS SUSAN#302Local Female 40-490:21:29 7.1 1044
KNELL Matt#120Local Senior Male0:21:42 7.1 10527
ROGERS Felicity#426Local Senior Female0:21:45 7 10614
GOODE THOMAS#683Local Male 50+0:21:54 7 10719
KEWMING ROBYN#321Local Female 50+0:22:18 6.9 1082
TIPPING SALLY#371Local Senior Female0:22:25 6.8 10915
BREMNER JAMES#48Local Senior Male0:22:33 6.8 11028
ALLEN KATE#354Local Senior Female0:22:33 6.8 11116
BLACKWELL NICOLE#412Local Senior Female0:22:47 6.7 11217
LLOYD GREG#88Local Senior Male0:22:54 6.7 11329
WING REBECCA#376Local Senior Female0:23:02 6.6 11418
WALKER Christine#425Local Female 50+0:24:19 6.3 1153
REEK George#696Local Male 50+0:24:27 6.3 11620
QUINN TONY#647Local Male 40-490:24:32 6.2 11718
KEMP Andrea#440Local Female 40-490:27:05 5.6 1185
BOSWORTH Susan#439Local Female 40-490:31:44 4.8 1196
BANNISTER DIANA#325Local Female 50+0:41:29 3.7 1204